Regional Weather Roundup
Issued by NWS Goodland, KS

Home | Current Version | Previous Version | Text Only | Print | Product List | Glossary Off
Versions: 1 2 3 4 5 6 7 8 9 10 11 12 13 14 15 16 17 18 19 20 21 22 23 24 25 26 27 28 29 30 31 32 33 34 35 36 37 38 39 40 41 42 43 44 45 46 47 48 49 50

000
ASUS43 KGLD 051859
RWRGLD

GOODLAND FORECAST AREA HOURLY WEATHER ROUNDUP
NATIONAL WEATHER SERVICE GOODLAND KS
100 PM MDT THU MAY 05 2016

...OFFICIAL OBSERVATIONS...

CITY           SKY/WX    TMP DP  RH WIND       PRES   REMARKS
GOODLAND KS    SUNNY     80  43  26 S16G24    30.07F
HILL CITY KS   SUNNY     80  47  31 S12       30.08F
IMPERIAL NEB   CLOUDY    79  42  26 S15       30.04F
MCCOOK NEB     SUNNY     78  50  37 S13       30.04F
AKRON CO       CLOUDY    77  36  22 S12       30.08F
BURLINGTON CO  SUNNY     79  35  20 SE15      30.09F
LIMON CO       SUNNY     75  33  21 S10G21    30.12F
$$

...UNOFFICIAL OBSERVATIONS...

CITY           SKY/WX    TMP DP  RH WIND       PRES   REMARKS
COLBY KS       SUNNY     75  55  50 SE10G17   30.09F
LENORA KS        N/A     76  32  20 MISG        N/A
NORTON KS      SUNNY     79  41  25 S9        30.06F
SHARON SPRINGS   N/A     79  45  29 S17G24      N/A
KIT CARSON CO    N/A     75  40  28 MISG        N/A
YUMA CO          N/A     79  40  24 CALM        N/A
$$




USA.gov is the U.S. government's official web portal to all federal, state and local government web resources and services.